Orbital elements:
    C/2002 Y1 (Juels-Holvorcem)
Epoch 2003 May 1.0 TT = JDT 2452760.5
T 2003 Apr. 13.25060 TT                                 MPC
q   0.7137668            (2000.0)            P               Q
z  +0.0040820      Peri.  128.82075     +0.65305036     +0.72111319
 +/-0.0002106      Node   166.21949     -0.27261787     -0.06115533
e   0.9970864      Incl.  103.78104     +0.70654421     -0.69011288
Residuals in seconds of arc
021228 678 (5.3+  3.1-)   030104 348 (2.6-  0.7-)   030112 A46  0.0   0.6-
021228 678 (2.7+  3.4+)   030104 340  0.2-  0.5-    030112 A46  0.0   0.2-
021228 678 (3.1+  3.0-)   030104 349  0.4-  0.4-    030112 J95  0.2+  0.1+
021228 678 (2.2+  2.0-)   030104 340  0.5-  0.0     030112 J95  0.1+  0.1-
021229 232 (0.1-  4.0+)   030104 340  0.5-  0.1-    030112 J95  0.1-  0.4-
021229 232 (2.7-  1.9+)   030104 349  0.1-  0.1-    030112 235  0.5+  0.1-
021229 232  0.5-  2.0-    030104 349  0.4-  0.1-    030112 H43  0.0   0.7+
021229 232  0.2+  0.2-    030104 349  0.4-  0.1-    030113 049 (4.4-  0.6-)
021229 232  0.3+  0.8-    030104 355  0.9-  0.2-    030113 049 (2.1-  0.4-)
021229 170  0.9+  0.3+    030104 355  0.6-  0.0     030113 049 (3.0-  0.5-)
021229 170  1.3+  0.0     030104 349  0.4-  0.1-    030114 J91  1.2-  0.1-
021229 170 (0.7+  2.2-)   030104 355  0.7-  0.5-    030114 J91  0.2+  0.3+
021229 170 (2.4+  2.1-)   030104 349  0.4-  0.0     030115 106 (4.2-  3.4-)
021229 170  0.3-  0.4+    030105 A02  1.7+  0.1-    030115 204  0.0   0.4-
021229 170  0.0   0.7+    030105 A02  0.7+  1.2+    030115 204  0.2-  0.4-
021229 170  0.1-  1.1+    030105 H43 (7.5-  0.1+)   030115 204  0.3+  0.2-
021229 170  1.3-  0.3+    030105 H43  0.7+  1.2-    030116 118  0.1+  0.5+
021229 850  0.6+  0.2-    030105 H43  2.0-  1.8-    030116 118  0.3+  0.4+
021229 850  0.1-  0.4+    030105 349  0.3-  0.1+    030116 118  0.1-  0.6+
021229 850 (2.0+  0.2+)   030105 349  0.3-  0.3+    030116 118  0.0   0.5+
021229 850  0.3+  1.3-    030105 349  0.0   0.3+    030116 118  0.5+  0.1+
021230 213  0.3+  0.6+    030105 349  0.3-  0.3+    030116 670  0.6-  0.2-
021230 213  0.3-  0.3+    030105 349  0.1-  0.3+    030116 670  0.1+  0.3+
021230 213  0.0   0.1+    030106 H43  0.3+  0.3+    030117 H43  0.4+  0.8+
021230 926  1.0+  0.2+    030106 H43  0.0   1.0-    030117 H43  0.1+  0.6+
021230 926  0.9+  0.4+    030106 926  0.6+  0.6+    030119 232  1.7+  1.0-
021230 926  1.0+  0.6+    030106 926  0.6+  0.9+    030119 232  0.6+  0.9+
021230 926  0.8+  0.4+    030106 926  0.4+  0.4+    030119 232  0.4+  1.7+
021230 926  1.1+  0.7+    030106 926  0.6+  0.4+    030120 A03  0.8+  1.1+
021230 926  1.0+  0.6+    030106 926  0.7+  0.6+    030120 A03  0.7+  1.2+
021230 349  0.5-  0.2-    030106 926  0.5+  0.7+    030120 H43  0.3-  0.3-
021230 349  0.5-  0.0     030107 H43  0.2-  1.2+    030120 H43  0.1+  0.4-
021230 349  0.5-  0.8+    030107 850  0.9+  1.5-    030120 H43  0.3-  0.1-
021230 349  0.8-  0.2+    030107 850  0.2-  1.4+    030121 H43  1.0-  0.4+
021230 349  1.1-  0.3+    030107 850  1.3+  0.6-    030122 939  0.1+  0.1-
021230 349  0.1+  0.5+    030107 H43  0.2+  1.9+    030122 939  0.1+  0.2-
021230 349  0.3-  0.4+    030107 850 (3.4-  0.3-)   030122 939  0.2+  0.3-
021230 349  0.1-  0.2+    030107 850  1.0+  1.1-    030122 H43 (3.0-  1.6-)
021230 349  0.2-  0.3-    030107 349  0.2+  0.1-    030122 H43  1.3+  0.0
021230 349  0.2-  0.3+    030107 349  0.2-  0.0     030124 H43  0.5+  0.5+
021230 355  0.8-  0.5+    030107 349  0.1-  0.2+    030124 H43  0.6+  0.2+
021230 355  1.4-  0.0     030107 349  0.2-  0.3+    030124 H43  0.8+  0.0
021231 734  0.0   0.2+    030107 349  0.2-  0.3+    030125 213  0.8+  0.8+
021231 734  0.2+  0.3+    030107 360  0.4+  0.3-    030125 213  0.3+  0.2+
021231 734  0.2+  0.2+    030107 360  0.3+  0.2-    030125 213  0.7+  1.2+
021231 734  0.0   0.1-    030108 J95  0.3+  0.3+    030125 445  1.6-  0.9-
021231 340  0.0   0.1+    030108 J95  0.6+  0.2-    030125 445  1.4-  1.0-
021231 340  0.5-  0.0     030108 850  0.2+  0.7-    030125 232  0.5-  0.3+
030101 213  0.7+  1.1-    030108 850  1.6+  1.2-    030125 445  0.8-  1.0-
030101 213  0.4+  1.0+    030108 850  0.0   0.2-    030125 232  1.4-  0.4+
030101 213  0.5-  0.5+    030108 349  0.5-  0.4+    030125 232  2.0-  0.3+
030101 678  0.5-  0.0     030108 349  0.2-  0.0     030126 939  0.0   0.1+
030101 678  0.6-  0.3-    030108 349  0.7-  0.4+    030126 939  0.2-  0.6+
030101 678  0.2-  0.1-    030108 349  0.2-  0.2+    030126 939  0.9-  0.8+
030101 678  0.3-  0.2-    030108 349  0.3-  0.2-    030126 204  0.1-  0.1+
030101 678  0.3-  0.1-    030109 H43  0.4+  0.3+    030126 204  0.4+  0.4+
030102 678  0.2-  1.1-    030110 H43  0.8-  1.5+    030126 204  0.4+  0.3+
030102 678  0.3-  1.1-    030110 H43  0.4+  1.6-    030126 204  0.1+  0.3+
030102 678  0.6-  1.0-    030110 850  0.6-  1.1+    030126 204  0.0   0.6+
030102 678  0.5-  1.0-    030110 850  0.7-  0.9+    030126 H41  0.8-  0.0
030102 678  0.3-  1.3-    030110 850  0.5+  0.4+    030126 H41  0.1-  0.3+
030102 349  0.2-  0.3-    030110 850  1.4+  0.6+    030126 678  1.3-  0.5-
030102 349  0.1-  0.5-    030111 235  1.1-  0.3-    030126 678  1.0-  0.9-
030102 349  0.0   0.1+    030111 704 (4.7-  1.3-)   030126 678  0.8-  0.8-
030102 349  0.0   0.3-    030111 704 (3.1-  0.1-)   030126 678  0.3-  0.8-
030102 349  0.2+  0.6-    030111 704 (3.7-  0.2-)   030126 678  0.7-  0.8-
030103 J95  0.3+  0.4+    030111 704 (4.0-  0.6-)   030126 678  0.2-  0.8-
030103 J95  0.0   0.2+    030111 704 (3.0-  1.3+)   030127 H43  0.0   0.4+
030103 J95  0.1+  0.7+    030111 349  0.1-  0.2+    030127 H43  0.6-  0.5+
030103 H43  0.2+  0.7+    030111 349  0.3-  0.3-    030127 H43  0.8-  0.3+
030103 H43  1.4-  0.0     030111 349  0.2-  0.2-    030128 J95  0.9+  0.1+
030103 349  0.9+  0.2-    030111 349  0.2-  0.2-    030128 J95  0.2+  0.2-
030103 349  0.4+  0.2-    030111 349  0.1-  0.1+    030128 J95  0.9+  0.0
030103 349  0.9+  0.1+    030111 340  0.3-  0.1-    030129 652  1.0+  1.3+
030103 349  0.7+  0.1+    030111 340  0.0   0.4+    030129 652 (5.7-  1.0+)
030103 349  0.6+  0.0     030111 340  0.4-  0.6-    030129 652 (4.1-  0.9+)
030104 204  0.5+  0.1+    030112 048  0.1-  0.6-    030129 652 (7.7-  1.2-)
030104 204  0.0   0.3+    030112 048  0.4+  0.9-    030129 652 (9.6-  0.0 )
030104 204  0.3+  0.2+    030112 048  0.6-  0.4-    030129 652 (6.1-  1.1+)
030104 204  1.1+  0.3+    030112 048  0.1-  0.6-    030129 652 (7.6-  2.1+)
030104 204  1.1+  0.5+    030112 048  0.1+  1.0-    030129 652 (9.4-  3.2+)
030104 232  0.3-  0.1-    030112 048  0.4-  0.8-    030131 678  1.2-  0.6-
030104 232  0.5+  0.7+    030112 048  0.4+  0.4-    030131 678  1.2-  0.8-
030104 232  0.2+  0.5-    030112 048  1.1+  0.0     030131 678  1.0-  0.5-
030104 A02  0.8+  1.1+    030112 048  0.6+  0.3-    030131 678  1.1-  0.6-
030104 A02  0.4-  1.0-    030112 048  1.2+  0.1-    030131 678  1.4-  0.5-
030104 H43  0.5-  0.4+    030112 A46  0.3+  0.5-    030201 213  1.9+  0.7+
030104 H43  1.0-  0.2+    030112 A46  0.3-  0.6-    030201 213  0.4+  1.2-
030104 411  1.1-  1.2-    030112 A46  0.3+  0.1-    030201 H41  0.3+  0.1+
030104 340  0.7-  1.0-    030112 A46  0.4+  0.4-    030201 H41  0.4+  0.2-
030104 340  1.4-  0.9+    030112 A46  0.1-  0.2+    030201 448  1.3+  0.5+
030104 411  0.6-  1.2-    030112 A46  0.2+  0.1+    030201 448  1.0+  0.3+
030104 340  1.0-  0.0     030112 A46  0.0   0.3-    030201 448  1.0+  0.1+
030104 411  1.1-  0.5-    030112 A46  0.3+  0.4-    030201 448  1.6+  0.3-
030104 348 (2.1-  1.0-)   030112 A46  0.4-  0.0

Ephemeris:
    C/2002 Y1 (Juels-Holvorcem)
Date    TT    R. A. (2000) Decl.     Delta      r     Elong.  Phase   m1    m2
2003 01 31    15 13.32   +41 52.5    1.023    1.514    97.9    40.1  11.4
2003 02 05    15 49.32   +47 57.4    0.955    1.442    96.0    42.8  11.0
2003 02 10    16 38.43   +53 52.2    0.911    1.371    92.4    46.0  10.7
2003 02 15    17 44.14   +58 33.7    0.892    1.299    87.3    49.4  10.4
2003 02 20    19 03.33   +60 50.8    0.899    1.228    81.0    52.7  10.2
2003 02 25    20 22.03   +60 15.8    0.928    1.157    74.1    55.4  10.0
2003 03 02    21 26.60   +57 30.3    0.977    1.088    67.1    57.0   9.8
2003 03 07    22 14.34   +53 39.9    1.040    1.021    60.3    57.6   9.7
2003 03 12    22 48.88   +49 30.2    1.111    0.957    53.7    56.8   9.5
2003 03 17    23 14.38   +45 22.9    1.188    0.896    47.5    54.9   9.4
2003 03 22    23 33.84   +41 25.0    1.265    0.842    41.6    51.8   9.3
2003 03 27    23 49.26   +37 37.0    1.341    0.794    36.1    47.7   9.1
2003 04 01    00 01.97   +33 56.7    1.411    0.756    30.9    42.8   9.0

     The "original" and "future" barycentric values of 1/a are +0.00421
and +0.00461 (+/- 0.00021) AU**-1, respectively.

Brian G. Marsden             (C) Copyright 2003 MPC           M.P.E.C. 2003-C05

Read MPEC 2003-C04 Read MPEC 2003-C06


Our Web policy. Index to the CBAT/MPC/ICQ pages.

